Regional Weather Roundup
Issued by NWS

Home | Current Version | Previous Version | Text Only | Print | Product List | Glossary On
Versions: 1 2 3 4 5 6 7 8 9 10 11 12 13 14 15 16 17 18 19 20 21 22 23 24 25 26 27 28 29 30 31 32 33 34 35 36 37 38 39 40 41 42 43 44 45 46 47 48 49 50
000
ASUS45 KABQ 271310
RWRNM
NEW MEXICO REGIONAL WEATHER ROUNDUP
NATIONAL WEATHER SERVICE ALBUQUERQUE NM
700 AM MDT SAT AUG 27 2016

NOTE: "FAIR" MEANS FEW OR NO CLOUDS BELOW 12,000 FEET AGL WITH NO
       SIGNIFICANT WEATHER OR OBSTRUCTIONS TO VISION.

      THIS PRODUCT IS RELEASED AS TWO VERSIONS.  ONE VERSION NEAR
      THE TOP OF THE HOUR CONTAINING PRELIMINARY DATA FROM ALBUQUERQUE
      AND OTHER STATIONS.  A FINAL VERSION WITH ADDITIONAL DATA IS
      ISSUED ABOUT 10 MINUTES AFTER THE HOUR.

NMZ501-503-504-510>518-271400-
NORTHWEST PLATEAU/NORTHCENTRAL MOUNTAINS

CITY           SKY/WX    TMP DP  RH WIND       PRES   REMARKS
FARMINGTON     MOCLDY    57  44  62 E8        30.18R
LOS ALAMOS     FAIR      54  45  69 CALM      30.29S
SANTA FE       FAIR      51  49  92 N8        30.24R
TAOS           MOCLDY    45  37  76 N6        30.30R
ANGEL FIRE     FAIR      33  33  98 CALM      30.38R

$$
NMZ402-403-502-505>509-271400-
WESTCENTRAL MOUNTAINS/SOUTHWEST MOUNTAINS

CITY           SKY/WX    TMP DP  RH WIND       PRES   REMARKS
GALLUP         FAIR      51  44  77 CALM      30.25R
GRANTS         CLOUDY    51  47  88 NW3       30.28R
SILVER CITY    MOCLDY    57  53  86 N5        30.20R

$$
NMZ407-409-411-412-271400-
SOUTHERN DESERTS

CITY           SKY/WX    TMP DP  RH WIND       PRES   REMARKS
DEMING         FAIR      65  57  75 CALM      30.13R
LAS CRUCES     FAIR      65  58  78 CALM      30.14R
ALAMOGORDO     FAIR      64  57  77 S7        30.14R
T OR C         CLOUDY    62  53  72 NW6       30.15R

$$
NMZ519>523-271400-
CENTRAL VALLEYS/CENTRAL HIGHLANDS

CITY           SKY/WX    TMP DP  RH WIND       PRES   REMARKS
ALBUQUERQUE    FAIR      60  50  69 CALM      30.20R
DOUBLE EAGLE   PTCLDY    52  46  82 N3        30.22R
MORIARTY ARPT  FAIR      49  46  90 CALM      30.25R
CLINES CORNERS NOT AVBL
BELEN          FAIR      60  49  68 SE5       30.18R
SOCORRO        MOCLDY    61  51  70 S3        30.17R

$$
NMZ524>526-539-540-271400-
SOUTHCENTRAL MOUNTAINS

CITY           SKY/WX    TMP DP  RH WIND       PRES   REMARKS
RUIDOSO          N/A     54  46  76 W8        30.29S

$$
NMZ527>531-271400-
NORTHEAST HIGHLANDS/NORTHEAST PLAINS

CITY           SKY/WX    TMP DP  RH WIND       PRES   REMARKS
LAS VEGAS      FAIR      48  46  93 N5        30.26R
RATON          FAIR      47  44  90 N6        30.22R
CLAYTON        FAIR      57  55  93 SW9       30.14S

$$
NMZ532>537-271400-
EASTCENTRAL PLAINS

CITY           SKY/WX    TMP DP  RH WIND       PRES   REMARKS
TUCUMCARI      FAIR      65  63  93 W6        30.11S
CANNON AFB     MOCLDY    62  62 100 W5        30.14R
CLOVIS AIRPORT FAIR      63  55  77 W7        30.14R

$$
NMZ028-029-538-271400-
SOUTHEAST PLAINS

CITY           SKY/WX    TMP DP  RH WIND       PRES   REMARKS
ROSWELL        FAIR      64  61  90 SE5       30.10R
ARTESIA        FAIR      64  64 100 SE5       30.11R
CARLSBAD       FAIR      65  63  93 CALM      30.09R
HOBBS          CLEAR     63  63 100 CALM      30.13R


$$




USA.gov is the U.S. government's official web portal to all federal, state and local government web resources and services.